[Iaude] MPEC N69: 2013 CR267 [a=1.17,e=0.43,i=20.2,H=20.8]
    mpec at cfa.harvard.edu 
    mpec at cfa.harvard.edu
       
    Fri Jul  5 22:05:14 EDT 2024
    
    
  
M.P.E.C. 2024-N69                                  Issued 2024 July 6, 02:03 UT
     The Minor Planet Electronic Circulars contain information on unusual
         minor planets, routine data on comets and natural satellites,
         and occasional editorial announcements.  They are published
    on behalf of Division F of the International Astronomical Union by the
          Minor Planet Center, Smithsonian Astrophysical Observatory,
                          Cambridge, MA 02138, U.S.A.
			  
             Prepared using the Tamkin Foundation Computer Network
                              MPC at CFA.HARVARD.EDU
            URL https://www.minorplanetcenter.net/    ISSN 1523-6714
                                   2013 CR267                                   
Observations:
     K13CQ7R*|C2013 02 03.36522012 58 24.254-02 33 38.17         22.53zVEN069W84
     K13CQ7R |C2013 02 03.37458312 58 24.152-02 33 44.36         22.42zVEN069W84
     K13CQ7R |C2013 02 03.37769512 58 24.095-02 33 46.61         22.51zVEN069W84
     K13CQ7R |C2013 02 04.30218812 58 14.571-02 44 01.64         22.43zVEN069W84
     K13CQ7R |C2013 02 04.31155912 58 14.430-02 44 08.25         22.78zVEN069W84
     K13CQ7R |C2013 02 04.31468312 58 14.389-02 44 10.17         22.97zVEN069W84
     K13CQ7R |C2013 02 04.32064412 58 14.299-02 44 14.09         22.64zVEN069W84
     K13CQ7R |C2013 02 08.38832712 56 56.134-03 29 31.59         22.80zVEN069W84
Observer details:
W84 Cerro Tololo-DECam.  Observer D. E. Survey.  Measurers J. Moeyens, M.
    Juric, S. Nelson, A. Koumjian, K. Kiker, N. Tellis, D. Veronese-Milin, A.
    Posner, E. Lu, C. Fiaschetti, D. Remy.  4.0-m Reflector + CCD.
Orbital elements:
2013 CR267                                               Earth MOID = 0.2926 AU
Epoch 2024 Mar. 31.0 TT = JDT 2460400.5                 Veres                   
M 162.06963              (2000.0)            P               Q                  
n   0.78279315     Peri.  339.80419     +0.84967394     +0.52230070             
a   1.1660165      Node   347.89042     -0.42379107     +0.59457352             
e   0.4342858      Incl.   20.21807     -0.31377590     +0.61129723             
P   1.26           H   20.88          G   0.15           U   8                  
Residuals in seconds of arc
130203 W84  0.1-  0.1+    130204 W84  0.1-  0.2+    130204 W84  0.1+  0.0
130203 W84  0.2+  0.1+    130204 W84  0.1-  0.2-    130208 W84  0.0   0.0
130203 W84  0.1-  0.1-    130204 W84  0.0   0.0
Ephemeris:
2013 CR267               a,e,i = 1.17, 0.43, 20                  q = 0.6596
Date    TT    R. A. (2000) Decl.     Delta      r    Elong.  Phase     V
2024 06 06    08 59 31.6 +18 31 12   1.9490  1.6276    56.6    31.4    24.7
...
2024 06 21    09 27 14.8 +14 47 44   2.0482  1.5918    49.7    29.1    24.7
...
2024 06 29    09 42 16.9 +12 43 40   2.0903  1.5683    46.2    27.9    24.7
...
2024 07 05    09 53 42.0 +11 07 57   2.1167  1.5487    43.6    26.9    24.7
2024 07 06    09 55 36.9 +10 51 46   2.1206  1.5453    43.2    26.8    24.7
2024 07 07    09 57 32.1 +10 35 30   2.1244  1.5418    42.8    26.6    24.7
...
2024 07 13    10 09 08.6 +08 56 27   2.1446  1.5199    40.4    25.7    24.6
...
2024 07 21    10 24 52.4 +06 40 12   2.1640  1.4879    37.2    24.4    24.6
...
2024 08 05    10 55 23.6 +02 10 46   2.1773  1.4197    31.8    22.1    24.4
M. P. C. Staff               (C) Copyright 2024 MPC           M.P.E.C. 2024-N69
    
    
More information about the Iaude
mailing list